Hourly Data Report for January 28, 2003

TORONTO CITY
ONTARIO

43°40'00.000" N
79°24'00.000" W
112.50 m
6158355
71508
XTO

Download Data

Hourly Data (January 2003)
Hourly Data Report for January 28, 2003
TIME
LST
Temp Definition
°C
Dew Point Definition
°C
Rel Hum Definition
%
Precip. Amount Definition
mm

Wind Dir Definition
10's deg

Wind Spd Definition
km/h
Visibility Definition
km
Stn Press Definition
kPa
Hmdx Definition


Wind Chill Definition


Weather Definition


00:00 -10.5 -14.7 71     0 LegendMM 101.18     LegendNANA
01:00
02:00 -10.0 -11.8 87     0 LegendMM 101.01     LegendNANA
03:00 -9.5 -11.5 85     0 LegendMM 100.95     LegendNANA
04:00 -9.3 -11.4 85     0 LegendMM 100.89     LegendNANA
05:00 -8.7 -12.1 76     0 LegendMM 100.78     LegendNANA
06:00 -9.1 -13.0 73     0 LegendMM 100.74     LegendNANA
07:00 -8.9 -13.1 72     0 LegendMM 100.70     LegendNANA
08:00 -8.3 -13.4 67     0 LegendMM 100.68     LegendNANA
09:00 -8.2 -13.5 66     0 LegendMM 100.69     LegendNANA
10:00 -7.6 -12.8 66     0 LegendMM 100.65     LegendNANA
11:00
12:00 -5.8 -11.6 64     0 LegendMM 100.55     LegendNANA
13:00 -5.3 -10.7 66     0 LegendMM 100.48     LegendNANA
14:00 -4.5 -9.8 66     0 LegendMM 100.40     LegendNANA
15:00 -4.0 -9.5 66     0 LegendMM 100.37     LegendNANA
16:00 -3.8 -9.1 67     0 LegendMM 100.39     LegendNANA
17:00 -3.8 -8.6 69     0 LegendMM 100.38     LegendNANA
18:00 -3.5 -8.1 70     0 LegendMM 100.37     LegendNANA
19:00 -3.2 -8.2 68     0 LegendMM 100.38     LegendNANA
20:00 -3.0 -7.6 71     0 LegendMM 100.36     LegendNANA
21:00 -3.0 -7.4 72     0 LegendMM 100.34     LegendNANA
22:00 -4.1 -5.6 89     0 LegendMM 100.33     LegendNANA
23:00 -4.1 -5.6 89     0 LegendMM 100.28     LegendNANA

Notes on Data Quality.

Legend

  • E = Estimated
  • M = Missing
  • NA = Not Available*
  • [empty] = Indicates an unobserved value
Date modified: